Year,Month,Day,Hour,Minute,Value (Times are PST for temperature in C)
2014,07,14,00,00,22.40
2014,07,14,00,01,22.40
2014,07,14,00,02,22.30
2014,07,14,00,03,22.30
2014,07,14,00,04,22.30
2014,07,14,00,05,22.30
2014,07,14,00,06,22.30
2014,07,14,00,07,22.30
2014,07,14,00,08,22.20
2014,07,14,00,09,22.20
2014,07,14,00,10,22.20
2014,07,14,00,11,22.20
2014,07,14,00,12,22.20
2014,07,14,00,13,22.20
2014,07,14,00,14,22.20
2014,07,14,00,15,22.20
2014,07,14,00,16,22.20
2014,07,14,00,17,22.20
2014,07,14,00,18,22.20
2014,07,14,00,19,22.20
2014,07,14,00,20,22.20
2014,07,14,00,21,22.20
2014,07,14,00,22,22.20
2014,07,14,00,23,22.20
2014,07,14,00,24,22.10
2014,07,14,00,25,22.10
2014,07,14,00,26,22.10
2014,07,14,00,27,22.10
2014,07,14,00,28,22.10
2014,07,14,00,29,22.10
2014,07,14,00,30,22.00
2014,07,14,00,31,22.00
2014,07,14,00,32,22.00
2014,07,14,00,33,21.90
2014,07,14,00,34,21.90
2014,07,14,00,35,21.90
2014,07,14,00,36,21.90
2014,07,14,00,37,21.90
2014,07,14,00,38,21.80
2014,07,14,00,39,21.80
2014,07,14,00,40,21.80
2014,07,14,00,41,21.80
2014,07,14,00,42,21.80
2014,07,14,00,43,21.80
2014,07,14,00,44,21.80
2014,07,14,00,45,21.80
2014,07,14,00,46,21.80
2014,07,14,00,47,21.80
2014,07,14,00,48,21.70
2014,07,14,00,49,21.70
2014,07,14,00,50,21.70
2014,07,14,00,51,21.70
2014,07,14,00,52,21.70
2014,07,14,00,53,21.70
2014,07,14,00,54,21.60
2014,07,14,00,55,21.60
2014,07,14,00,56,21.60
2014,07,14,00,57,21.60
2014,07,14,00,58,21.60
2014,07,14,00,59,21.50
2014,07,14,01,00,21.50
2014,07,14,01,01,21.50
2014,07,14,01,02,21.40
2014,07,14,01,03,21.40
2014,07,14,01,04,21.40
2014,07,14,01,05,21.40
2014,07,14,01,06,21.30
2014,07,14,01,07,21.30
2014,07,14,01,08,21.30
2014,07,14,01,09,21.20
2014,07,14,01,10,21.20
2014,07,14,01,11,21.20
2014,07,14,01,12,21.10
2014,07,14,01,13,21.10
2014,07,14,01,14,21.10
2014,07,14,01,15,21.00
2014,07,14,01,16,21.00
2014,07,14,01,17,21.00
2014,07,14,01,18,21.00
2014,07,14,01,19,20.90
2014,07,14,01,20,20.90
2014,07,14,01,21,20.90
2014,07,14,01,22,20.90
2014,07,14,01,23,20.90
2014,07,14,01,24,20.90
2014,07,14,01,25,20.80
2014,07,14,01,26,20.80
2014,07,14,01,27,20.80
2014,07,14,01,28,20.80
2014,07,14,01,29,20.80
2014,07,14,01,30,20.80
2014,07,14,01,31,20.80
2014,07,14,01,32,20.80
2014,07,14,01,33,20.80
2014,07,14,01,34,20.80
2014,07,14,01,35,20.80
2014,07,14,01,36,20.80
2014,07,14,01,37,20.70
2014,07,14,01,38,20.70
2014,07,14,01,39,20.70
2014,07,14,01,40,20.70
2014,07,14,01,41,20.70
2014,07,14,01,42,20.70
2014,07,14,01,43,20.70
2014,07,14,01,44,20.70
2014,07,14,01,45,20.70
2014,07,14,01,46,20.70
2014,07,14,01,47,20.60
2014,07,14,01,48,20.60
2014,07,14,01,49,20.60
2014,07,14,01,50,20.60
2014,07,14,01,51,20.60
2014,07,14,01,52,20.60
2014,07,14,01,53,20.60
2014,07,14,01,54,20.60
2014,07,14,01,55,20.60
2014,07,14,01,56,20.60
2014,07,14,01,57,20.50
2014,07,14,01,58,20.50
2014,07,14,01,59,20.50
2014,07,14,02,00,20.50
2014,07,14,02,01,20.40
2014,07,14,02,02,20.40
2014,07,14,02,03,20.40
2014,07,14,02,04,20.40
2014,07,14,02,05,20.40
2014,07,14,02,06,20.40
2014,07,14,02,07,20.40
2014,07,14,02,08,20.40
2014,07,14,02,09,20.40
2014,07,14,02,10,20.40
2014,07,14,02,11,20.40
2014,07,14,02,12,20.30
2014,07,14,02,13,20.30
2014,07,14,02,14,20.30
2014,07,14,02,15,20.30
2014,07,14,02,16,20.30
2014,07,14,02,17,20.30
2014,07,14,02,18,20.30
2014,07,14,02,19,20.30
2014,07,14,02,20,20.20
2014,07,14,02,21,20.20
2014,07,14,02,22,20.20
2014,07,14,02,23,20.20
2014,07,14,02,24,20.20
2014,07,14,02,25,20.20
2014,07,14,02,26,20.20
2014,07,14,02,27,20.20
2014,07,14,02,28,20.20
2014,07,14,02,29,20.20
2014,07,14,02,30,20.20
2014,07,14,02,31,20.10
2014,07,14,02,32,20.10
2014,07,14,02,33,20.10
2014,07,14,02,34,20.10
2014,07,14,02,35,20.10
2014,07,14,02,36,20.10
2014,07,14,02,37,20.10
2014,07,14,02,38,20.10
2014,07,14,02,39,20.10
2014,07,14,02,40,20.10
2014,07,14,02,41,20.10
2014,07,14,02,42,20.10
2014,07,14,02,43,20.10
2014,07,14,02,44,20.10
2014,07,14,02,45,20.10
2014,07,14,02,46,20.10
2014,07,14,02,47,20.10
2014,07,14,02,48,20.10
2014,07,14,02,49,20.10
2014,07,14,02,50,20.10
2014,07,14,02,51,20.10
2014,07,14,02,52,20.10
2014,07,14,02,53,20.10
2014,07,14,02,54,20.10
2014,07,14,02,55,20.10
2014,07,14,02,56,20.10
2014,07,14,02,57,20.10
2014,07,14,02,58,20.10
2014,07,14,02,59,20.10
2014,07,14,03,00,20.10
2014,07,14,03,01,20.00
2014,07,14,03,02,20.00
2014,07,14,03,06,19.90
2014,07,14,03,07,19.90
2014,07,14,03,08,19.90
2014,07,14,03,09,19.90
2014,07,14,03,10,19.90
2014,07,14,03,11,19.90
2014,07,14,03,12,19.90
2014,07,14,03,13,19.80
2014,07,14,03,14,19.80
2014,07,14,03,15,19.80
2014,07,14,03,16,19.80
2014,07,14,03,17,19.80
2014,07,14,03,18,19.80
2014,07,14,03,19,19.70
2014,07,14,03,20,19.70
2014,07,14,03,21,19.70
2014,07,14,03,22,19.70
2014,07,14,03,23,19.70
2014,07,14,03,24,19.60
2014,07,14,03,25,19.60
2014,07,14,03,26,19.60
2014,07,14,03,27,19.50
2014,07,14,03,28,19.50
2014,07,14,03,29,19.40
2014,07,14,03,30,19.40
2014,07,14,03,31,19.40
2014,07,14,03,32,19.40
2014,07,14,03,33,19.30
2014,07,14,03,34,19.30
2014,07,14,03,35,19.30
2014,07,14,03,36,19.30
2014,07,14,03,37,19.30
2014,07,14,03,38,19.30
2014,07,14,03,39,19.30
2014,07,14,03,40,19.30
2014,07,14,03,41,19.30
2014,07,14,03,42,19.30
2014,07,14,03,43,19.30
2014,07,14,03,44,19.30
2014,07,14,03,45,19.30
2014,07,14,03,46,19.30
2014,07,14,03,47,19.30
2014,07,14,03,48,19.30
2014,07,14,03,49,19.30
2014,07,14,03,50,19.30
2014,07,14,03,51,19.30
2014,07,14,03,52,19.30
2014,07,14,03,53,19.30
2014,07,14,03,54,19.30
2014,07,14,03,55,19.30
2014,07,14,03,56,19.30
2014,07,14,03,57,19.30
2014,07,14,03,58,19.30
2014,07,14,03,59,19.30
2014,07,14,04,00,19.30
2014,07,14,04,01,19.30
2014,07,14,04,02,19.30
2014,07,14,04,03,19.20
2014,07,14,04,04,19.20
2014,07,14,04,05,19.20
2014,07,14,04,06,19.20
2014,07,14,04,07,19.20
2014,07,14,04,08,19.20
2014,07,14,04,09,19.10
2014,07,14,04,10,19.10
2014,07,14,04,11,19.10
2014,07,14,04,12,19.00
2014,07,14,04,13,19.00
2014,07,14,04,14,19.00
2014,07,14,04,15,18.90
2014,07,14,04,16,18.90
2014,07,14,04,17,18.90
2014,07,14,04,18,18.90
2014,07,14,04,19,18.80
2014,07,14,04,20,18.80
2014,07,14,04,21,18.80
2014,07,14,04,22,18.80
2014,07,14,04,23,18.80
2014,07,14,04,24,18.70
2014,07,14,04,25,18.70
2014,07,14,04,26,18.70
2014,07,14,04,27,18.70
2014,07,14,04,28,18.70
2014,07,14,04,29,18.70
2014,07,14,04,30,18.70
2014,07,14,04,31,18.70
2014,07,14,04,32,18.70
2014,07,14,04,33,18.60
2014,07,14,04,34,18.60
2014,07,14,04,35,18.60
2014,07,14,04,36,18.60
2014,07,14,04,37,18.60
2014,07,14,04,38,18.60
2014,07,14,04,39,18.50
2014,07,14,04,40,18.50
2014,07,14,04,41,18.50
2014,07,14,04,42,18.50
2014,07,14,04,43,18.40
2014,07,14,04,44,18.40
2014,07,14,04,45,18.40
2014,07,14,04,46,18.40
2014,07,14,04,47,18.40
2014,07,14,04,48,18.40
2014,07,14,04,49,18.40
2014,07,14,04,50,18.40
2014,07,14,04,51,18.40
2014,07,14,04,52,18.30
2014,07,14,04,53,18.30
2014,07,14,04,54,18.30
2014,07,14,04,55,18.30
2014,07,14,04,56,18.30
2014,07,14,04,57,18.30
2014,07,14,04,58,18.30
2014,07,14,04,59,18.20
2014,07,14,05,00,18.20
2014,07,14,05,01,18.20
2014,07,14,05,02,18.20
2014,07,14,05,03,18.20
2014,07,14,05,04,18.20
2014,07,14,05,05,18.20
2014,07,14,05,06,18.20
2014,07,14,05,07,18.20
2014,07,14,05,08,18.20
2014,07,14,05,09,18.10
2014,07,14,05,10,18.10
2014,07,14,05,11,18.10
2014,07,14,05,12,18.10
2014,07,14,05,13,18.10
2014,07,14,05,14,18.10
2014,07,14,05,15,18.10
2014,07,14,05,16,18.10
2014,07,14,05,17,18.10
2014,07,14,05,18,18.10
2014,07,14,05,19,18.10
2014,07,14,05,20,18.10
2014,07,14,05,21,18.10
2014,07,14,05,22,18.10
2014,07,14,05,23,18.10
2014,07,14,05,24,18.10
2014,07,14,05,25,18.10
2014,07,14,05,26,18.10
2014,07,14,05,27,18.10
2014,07,14,05,28,18.00
2014,07,14,05,29,18.00
2014,07,14,05,30,18.00
2014,07,14,05,31,18.00
2014,07,14,05,32,17.90
2014,07,14,05,33,17.90
2014,07,14,05,34,17.90
2014,07,14,05,35,17.90
2014,07,14,05,36,17.90
2014,07,14,05,37,17.90
2014,07,14,05,38,17.90
2014,07,14,05,39,17.90
2014,07,14,05,40,17.80
2014,07,14,05,41,17.80
2014,07,14,05,42,17.80
2014,07,14,05,43,17.80
2014,07,14,05,44,17.80
2014,07,14,05,45,17.80
2014,07,14,05,46,17.80
2014,07,14,05,47,17.80
2014,07,14,05,48,17.80
2014,07,14,05,49,17.80
2014,07,14,05,50,17.80
2014,07,14,05,51,17.70
2014,07,14,05,52,17.70
2014,07,14,05,53,17.70
2014,07,14,05,54,17.70
2014,07,14,05,55,17.70
2014,07,14,05,56,17.70
2014,07,14,05,57,17.70
2014,07,14,05,58,17.70
2014,07,14,05,59,17.70
2014,07,14,06,00,17.60
2014,07,14,06,01,17.60
2014,07,14,06,02,17.60
2014,07,14,06,03,17.60
2014,07,14,06,04,17.60
2014,07,14,06,05,17.60
2014,07,14,06,06,17.60
2014,07,14,06,07,17.60
2014,07,14,06,08,17.60
2014,07,14,06,09,17.60
2014,07,14,06,10,17.60
2014,07,14,06,11,17.50
2014,07,14,06,12,17.50
2014,07,14,06,13,17.50
2014,07,14,06,14,17.50
2014,07,14,06,15,17.40
2014,07,14,06,16,17.40
2014,07,14,06,17,17.40
2014,07,14,06,18,17.40
2014,07,14,06,19,17.40
2014,07,14,06,20,17.40
2014,07,14,06,21,17.40
2014,07,14,06,22,17.30
2014,07,14,06,23,17.30
2014,07,14,06,24,17.30
2014,07,14,06,25,17.30
2014,07,14,06,26,17.30
2014,07,14,06,27,17.30
2014,07,14,06,28,17.30
2014,07,14,06,29,17.30
2014,07,14,06,30,17.30
2014,07,14,06,31,17.30
2014,07,14,06,32,17.30
2014,07,14,06,33,17.30
2014,07,14,06,34,17.30
2014,07,14,06,35,17.30
2014,07,14,06,36,17.30
2014,07,14,06,37,17.30
2014,07,14,06,38,17.30
2014,07,14,06,39,17.30
2014,07,14,06,40,17.30
2014,07,14,06,41,17.30
2014,07,14,06,42,17.30
2014,07,14,06,43,17.30
2014,07,14,06,44,17.40
2014,07,14,06,45,17.40
2014,07,14,06,46,17.40
2014,07,14,06,47,17.40
2014,07,14,06,48,17.40
2014,07,14,06,49,17.40
2014,07,14,06,50,17.40
2014,07,14,06,51,17.40
2014,07,14,06,52,17.40
2014,07,14,06,53,17.50
2014,07,14,06,54,17.50
2014,07,14,06,55,17.50
2014,07,14,06,56,17.50
2014,07,14,06,57,17.50
2014,07,14,06,58,17.50
2014,07,14,06,59,17.50
2014,07,14,07,00,17.50
2014,07,14,07,01,17.50
2014,07,14,07,02,17.60
2014,07,14,07,03,17.50
2014,07,14,07,04,17.50
2014,07,14,07,05,17.60
2014,07,14,07,06,17.60
2014,07,14,07,07,17.60
2014,07,14,07,08,17.60
2014,07,14,07,09,17.60
2014,07,14,07,10,17.60
2014,07,14,07,11,17.60
2014,07,14,07,12,17.60
2014,07,14,07,13,17.60
2014,07,14,07,14,17.60
2014,07,14,07,15,17.60
2014,07,14,07,16,17.60
2014,07,14,07,17,17.60
2014,07,14,07,18,17.60
2014,07,14,07,19,17.60
2014,07,14,07,20,17.60
2014,07,14,07,21,17.70
2014,07,14,07,22,17.70
2014,07,14,07,23,17.70
2014,07,14,07,24,17.70
2014,07,14,07,25,17.60
2014,07,14,07,26,17.60
2014,07,14,07,27,17.60
2014,07,14,07,28,17.60
2014,07,14,07,29,17.60
2014,07,14,07,30,17.60
2014,07,14,07,31,17.60
2014,07,14,07,32,17.60
2014,07,14,07,33,17.60
2014,07,14,07,34,17.60
2014,07,14,07,35,17.60
2014,07,14,07,36,17.60
2014,07,14,07,37,17.60
2014,07,14,07,38,17.60
2014,07,14,07,39,17.60
2014,07,14,07,40,17.60
2014,07,14,07,41,17.60
2014,07,14,07,42,17.60
2014,07,14,07,43,17.60
2014,07,14,07,44,17.60
2014,07,14,07,45,17.60
2014,07,14,07,46,17.60
2014,07,14,07,47,17.60
2014,07,14,07,48,17.60
2014,07,14,07,49,17.70
2014,07,14,07,50,17.70
2014,07,14,07,51,17.70
2014,07,14,07,52,17.70
2014,07,14,07,53,17.70
2014,07,14,07,54,17.70
2014,07,14,07,55,17.70
2014,07,14,07,56,17.70
2014,07,14,07,57,17.70
2014,07,14,07,58,17.80
2014,07,14,07,59,17.80
2014,07,14,08,00,17.80
2014,07,14,08,01,17.80
2014,07,14,08,02,17.80
2014,07,14,08,03,17.80
2014,07,14,08,04,17.90
2014,07,14,08,05,17.90
2014,07,14,08,06,17.90
2014,07,14,08,07,17.90
2014,07,14,08,08,17.90
2014,07,14,08,09,17.90
2014,07,14,08,10,18.00
2014,07,14,08,11,18.00
2014,07,14,08,12,18.00
2014,07,14,08,13,18.00
2014,07,14,08,14,18.10
2014,07,14,08,15,18.10
2014,07,14,08,16,18.10
2014,07,14,08,17,18.10
2014,07,14,08,18,18.10
2014,07,14,08,19,18.20
2014,07,14,08,20,18.20
2014,07,14,08,21,18.20
2014,07,14,08,22,18.20
2014,07,14,08,23,18.20
2014,07,14,08,24,18.30
2014,07,14,08,25,18.30
2014,07,14,08,26,18.30
2014,07,14,08,27,18.30
2014,07,14,08,28,18.30
2014,07,14,08,29,18.40
2014,07,14,08,30,18.40
2014,07,14,08,31,18.40
2014,07,14,08,32,18.50
2014,07,14,08,33,18.50
2014,07,14,08,34,18.60
2014,07,14,08,35,18.60
2014,07,14,08,36,18.60
2014,07,14,08,37,18.70
2014,07,14,08,38,18.70
2014,07,14,08,39,18.70
2014,07,14,08,40,18.80
2014,07,14,08,41,18.80
2014,07,14,08,42,18.80
2014,07,14,08,43,18.90
2014,07,14,08,44,18.90
2014,07,14,08,45,18.90
2014,07,14,08,46,19.00
2014,07,14,08,47,19.00
2014,07,14,08,48,19.10
2014,07,14,08,49,19.10
2014,07,14,08,50,19.10
2014,07,14,08,51,19.20
2014,07,14,08,52,19.20
2014,07,14,08,53,19.20
2014,07,14,08,54,19.30
2014,07,14,08,55,19.30
2014,07,14,08,56,19.30
2014,07,14,08,57,19.40
2014,07,14,08,58,19.40
2014,07,14,08,59,19.50
2014,07,14,09,00,19.50
2014,07,14,09,01,19.60
2014,07,14,09,02,19.60
2014,07,14,09,03,19.60
2014,07,14,09,04,19.70
2014,07,14,09,05,19.70
2014,07,14,09,06,19.80
2014,07,14,09,07,19.80
2014,07,14,09,08,19.80
2014,07,14,09,09,19.90
2014,07,14,09,10,19.90
2014,07,14,09,11,20.00
2014,07,14,09,12,20.00
2014,07,14,09,13,20.00
2014,07,14,09,14,20.10
2014,07,14,09,15,20.10
2014,07,14,09,16,20.10
2014,07,14,09,17,20.20
2014,07,14,09,18,20.30
2014,07,14,09,19,20.40
2014,07,14,09,20,20.50
2014,07,14,09,21,20.50
2014,07,14,09,22,20.60
2014,07,14,09,23,20.70
2014,07,14,09,24,20.80
2014,07,14,09,25,20.90
2014,07,14,09,26,21.10
2014,07,14,09,27,21.20
2014,07,14,09,28,21.30
2014,07,14,09,29,21.40
2014,07,14,09,30,21.50
2014,07,14,09,31,21.60
2014,07,14,09,32,21.70
2014,07,14,09,33,21.70
2014,07,14,09,34,21.80
2014,07,14,09,35,21.90
2014,07,14,09,36,22.00
2014,07,14,09,37,22.10
2014,07,14,09,38,22.20
2014,07,14,09,39,22.30
2014,07,14,09,40,22.40
2014,07,14,09,41,22.50
2014,07,14,09,42,22.60
2014,07,14,09,43,22.70
2014,07,14,09,44,22.90
2014,07,14,09,45,23.00
2014,07,14,09,46,23.10
2014,07,14,09,47,23.20
2014,07,14,09,48,23.30
2014,07,14,09,49,23.40
2014,07,14,09,50,23.40
2014,07,14,09,51,23.50
2014,07,14,09,52,23.60
2014,07,14,09,53,23.80
2014,07,14,09,54,23.80
2014,07,14,09,55,23.90
2014,07,14,09,56,24.00
2014,07,14,09,57,24.10
2014,07,14,09,58,24.20
2014,07,14,09,59,24.20
2014,07,14,10,00,24.30
2014,07,14,10,01,24.30
2014,07,14,10,02,24.30
2014,07,14,10,03,24.40
2014,07,14,10,04,24.40
2014,07,14,10,05,24.40
2014,07,14,10,06,24.40
2014,07,14,10,07,24.40
2014,07,14,10,08,24.40
2014,07,14,10,09,24.50
2014,07,14,10,10,24.50
2014,07,14,10,11,24.50
2014,07,14,10,12,24.50
2014,07,14,10,13,24.50
2014,07,14,10,14,24.50
2014,07,14,10,15,24.50
2014,07,14,10,16,24.50
2014,07,14,10,17,24.60
2014,07,14,10,18,24.60
2014,07,14,10,19,24.60
2014,07,14,10,20,24.60
2014,07,14,10,21,24.50
2014,07,14,10,22,24.50
2014,07,14,10,23,24.40
2014,07,14,10,24,24.40
2014,07,14,10,25,24.40
2014,07,14,10,26,24.30
2014,07,14,10,27,24.30
2014,07,14,10,28,24.30
2014,07,14,10,29,24.30
2014,07,14,10,30,24.20
2014,07,14,10,31,24.20
2014,07,14,10,32,24.20
2014,07,14,10,33,24.20
2014,07,14,10,34,24.20
2014,07,14,10,35,24.30
2014,07,14,10,36,24.30
2014,07,14,10,37,24.20
2014,07,14,10,38,24.20
2014,07,14,10,39,24.20
2014,07,14,10,40,24.20
2014,07,14,10,41,24.20
2014,07,14,10,42,24.30
2014,07,14,10,43,24.30
2014,07,14,10,44,24.30
2014,07,14,10,45,24.30
2014,07,14,10,46,24.40
2014,07,14,10,47,24.40
2014,07,14,10,48,24.40
2014,07,14,10,49,24.50
2014,07,14,10,50,24.50
2014,07,14,10,51,24.60
2014,07,14,10,52,24.70
2014,07,14,10,53,24.70
2014,07,14,10,54,24.80
2014,07,14,10,55,24.90
2014,07,14,10,56,24.90
2014,07,14,10,57,25.00
2014,07,14,10,58,25.10
2014,07,14,10,59,25.20
2014,07,14,11,00,25.20
2014,07,14,11,01,25.30
2014,07,14,11,02,25.40
2014,07,14,11,03,25.50
2014,07,14,11,04,25.50
2014,07,14,11,05,25.60
2014,07,14,11,06,25.70
2014,07,14,11,07,25.70
2014,07,14,11,08,25.80
2014,07,14,11,09,25.90
2014,07,14,11,10,25.90
2014,07,14,11,11,25.90
2014,07,14,11,12,25.90
2014,07,14,11,13,26.00
2014,07,14,11,14,26.00
2014,07,14,11,15,26.10
2014,07,14,11,16,26.10
2014,07,14,11,17,26.10
2014,07,14,11,18,26.20
2014,07,14,11,19,26.20
2014,07,14,11,20,26.30
2014,07,14,11,21,26.20
2014,07,14,11,22,26.20
2014,07,14,11,23,26.20
2014,07,14,11,24,26.20
2014,07,14,11,25,26.20
2014,07,14,11,26,26.10
2014,07,14,11,27,26.00
2014,07,14,11,28,25.90
2014,07,14,11,29,25.90
2014,07,14,11,30,25.90
2014,07,14,11,31,25.80
2014,07,14,11,32,25.80
2014,07,14,11,33,25.80
2014,07,14,11,34,25.80
2014,07,14,11,35,25.80
2014,07,14,11,36,25.80
2014,07,14,11,37,25.80
2014,07,14,11,38,25.80
2014,07,14,11,39,25.80
2014,07,14,11,40,25.80
2014,07,14,11,41,25.90
2014,07,14,11,42,25.90
2014,07,14,11,43,25.90
2014,07,14,11,44,25.90
2014,07,14,11,45,26.00
2014,07,14,11,46,26.10
2014,07,14,11,47,26.10
2014,07,14,11,48,26.10
2014,07,14,11,49,26.10
2014,07,14,11,50,26.00
2014,07,14,11,51,26.00
2014,07,14,11,52,25.90
2014,07,14,11,53,26.00
2014,07,14,11,54,26.00
2014,07,14,11,55,26.10
2014,07,14,11,56,26.10
2014,07,14,11,57,26.10
2014,07,14,11,58,26.10
2014,07,14,11,59,26.10
2014,07,14,12,00,26.10
2014,07,14,12,01,26.10
2014,07,14,12,02,26.10
2014,07,14,12,03,26.20
2014,07,14,12,04,26.30
2014,07,14,12,05,26.40
2014,07,14,12,06,26.50
2014,07,14,12,07,26.60
2014,07,14,12,08,26.60
2014,07,14,12,09,26.70
2014,07,14,12,10,26.70
2014,07,14,12,11,26.80
2014,07,14,12,12,26.80
2014,07,14,12,13,26.80
2014,07,14,12,14,26.90
2014,07,14,12,15,26.90
2014,07,14,12,16,26.90
2014,07,14,12,17,26.90
2014,07,14,12,18,27.00
2014,07,14,12,19,27.00
2014,07,14,12,20,27.10
2014,07,14,12,21,27.10
2014,07,14,12,22,27.20
2014,07,14,12,23,27.20
2014,07,14,12,24,27.30
2014,07,14,12,25,27.30
2014,07,14,12,26,27.30
2014,07,14,12,27,27.40
2014,07,14,12,28,27.40
2014,07,14,12,29,27.40
2014,07,14,12,30,27.40
2014,07,14,12,31,27.40
2014,07,14,12,32,27.40
2014,07,14,12,33,27.40
2014,07,14,12,34,27.40
2014,07,14,12,35,27.40
2014,07,14,12,36,27.50
2014,07,14,12,37,27.50
2014,07,14,12,38,27.60
2014,07,14,12,39,27.60
2014,07,14,12,40,27.60
2014,07,14,12,41,27.60
2014,07,14,12,42,27.70
2014,07,14,12,43,27.70
2014,07,14,12,44,27.70
2014,07,14,12,45,27.70
2014,07,14,12,46,27.70
2014,07,14,12,47,27.80
2014,07,14,12,48,27.80
2014,07,14,12,49,27.80
2014,07,14,12,50,27.70
2014,07,14,12,51,27.80
2014,07,14,12,52,27.70
2014,07,14,12,53,27.80
2014,07,14,12,54,27.70
2014,07,14,12,55,27.70
2014,07,14,12,56,27.60
2014,07,14,12,57,27.60
2014,07,14,12,58,27.60
2014,07,14,12,59,27.60
2014,07,14,13,00,27.50
2014,07,14,13,01,27.50
2014,07,14,13,02,27.50
2014,07,14,13,03,27.50
2014,07,14,13,04,27.60
2014,07,14,13,05,27.60
2014,07,14,13,06,27.60
2014,07,14,13,07,27.60
2014,07,14,13,08,27.60
2014,07,14,13,09,27.60
2014,07,14,13,10,27.50
2014,07,14,13,11,27.50
2014,07,14,13,12,27.40
2014,07,14,13,13,27.40
2014,07,14,13,14,27.40
2014,07,14,13,15,27.30
2014,07,14,13,16,27.30
2014,07,14,13,17,27.30
2014,07,14,13,18,27.40
2014,07,14,13,19,27.40
2014,07,14,13,20,27.40
2014,07,14,13,21,27.50
2014,07,14,13,22,27.50
2014,07,14,13,23,27.50
2014,07,14,13,24,27.60
2014,07,14,13,25,27.60
2014,07,14,13,26,27.60
2014,07,14,13,27,27.60
2014,07,14,13,28,27.50
2014,07,14,13,29,27.50
2014,07,14,13,30,27.40
2014,07,14,13,31,27.40
2014,07,14,13,32,27.30
2014,07,14,13,33,27.30
2014,07,14,13,34,27.30
2014,07,14,13,35,27.30
2014,07,14,13,36,27.30
2014,07,14,13,37,27.30
2014,07,14,13,38,27.30
2014,07,14,13,39,27.30
2014,07,14,13,40,27.30
2014,07,14,13,41,27.40
2014,07,14,13,42,27.40
2014,07,14,13,43,27.50
2014,07,14,13,44,27.50
2014,07,14,13,45,27.40
2014,07,14,13,46,27.40
2014,07,14,13,47,27.40
2014,07,14,13,48,27.30
2014,07,14,13,49,27.30
2014,07,14,13,50,27.30
2014,07,14,13,51,27.20
2014,07,14,13,52,27.20
2014,07,14,13,53,27.10
2014,07,14,13,54,27.10
2014,07,14,13,55,27.10
2014,07,14,13,56,27.10
2014,07,14,13,57,27.10
2014,07,14,13,58,27.20
2014,07,14,13,59,27.20
2014,07,14,14,00,27.20
2014,07,14,14,01,27.20
2014,07,14,14,02,27.20
2014,07,14,14,03,27.30
2014,07,14,14,04,27.30
2014,07,14,14,05,27.30
2014,07,14,14,06,27.40
2014,07,14,14,07,27.40
2014,07,14,14,08,27.50
2014,07,14,14,09,27.50
2014,07,14,14,10,27.60
2014,07,14,14,11,27.60
2014,07,14,14,12,27.60
2014,07,14,14,13,27.60
2014,07,14,14,14,27.60
2014,07,14,14,15,27.60
2014,07,14,14,16,27.70
2014,07,14,14,17,27.70
2014,07,14,14,18,27.70
2014,07,14,14,19,27.80
2014,07,14,14,20,27.80
2014,07,14,14,21,27.80
2014,07,14,14,22,27.70
2014,07,14,14,23,27.70
2014,07,14,14,24,27.70
2014,07,14,14,25,27.80
2014,07,14,14,26,27.80
2014,07,14,14,27,27.90
2014,07,14,14,28,28.00
2014,07,14,14,29,28.10
2014,07,14,14,30,28.20
2014,07,14,14,31,28.20
2014,07,14,14,32,28.30
2014,07,14,14,33,28.30
2014,07,14,14,34,28.30
2014,07,14,14,35,28.30
2014,07,14,14,36,28.30
2014,07,14,14,37,28.30
2014,07,14,14,38,28.30
2014,07,14,14,39,28.20
2014,07,14,14,40,28.20
2014,07,14,14,41,28.10
2014,07,14,14,42,28.10
2014,07,14,14,43,28.10
2014,07,14,14,44,28.10
2014,07,14,14,45,28.00
2014,07,14,14,46,28.10
2014,07,14,14,47,28.10
2014,07,14,14,48,28.20
2014,07,14,14,49,28.30
2014,07,14,14,50,28.30
2014,07,14,14,51,28.40
2014,07,14,14,52,28.50
2014,07,14,14,53,28.60
2014,07,14,14,54,28.60
2014,07,14,14,55,28.70
2014,07,14,14,56,28.70
2014,07,14,14,57,28.70
2014,07,14,14,58,28.70
2014,07,14,14,59,28.60
2014,07,14,15,00,28.50
2014,07,14,15,01,28.40
2014,07,14,15,02,28.40
2014,07,14,15,03,28.30
2014,07,14,15,04,28.30
2014,07,14,15,05,28.30
2014,07,14,15,06,28.30
2014,07,14,15,07,28.30
2014,07,14,15,08,28.40
2014,07,14,15,09,28.50
2014,07,14,15,10,28.50
2014,07,14,15,11,28.60
2014,07,14,15,12,28.60
2014,07,14,15,13,28.70
2014,07,14,15,14,28.80
2014,07,14,15,15,28.80
2014,07,14,15,16,28.90
2014,07,14,15,17,29.00
2014,07,14,15,18,29.20
2014,07,14,15,19,29.30
2014,07,14,15,20,29.40
2014,07,14,15,21,29.50
2014,07,14,15,22,29.60
2014,07,14,15,23,29.70
2014,07,14,15,24,29.70
2014,07,14,15,25,29.80
2014,07,14,15,26,29.90
2014,07,14,15,27,29.90
2014,07,14,15,28,30.00
2014,07,14,15,29,30.00
2014,07,14,15,30,30.10
2014,07,14,15,31,30.10
2014,07,14,15,32,30.10
2014,07,14,15,33,30.20
2014,07,14,15,34,30.20
2014,07,14,15,35,30.20
2014,07,14,15,36,30.20
2014,07,14,15,37,30.20
2014,07,14,15,38,30.20
2014,07,14,15,39,30.20
2014,07,14,15,40,30.20
2014,07,14,15,41,30.20
2014,07,14,15,42,30.30
2014,07,14,15,43,30.30
2014,07,14,15,44,30.20
2014,07,14,15,45,30.20
2014,07,14,15,46,30.20
2014,07,14,15,47,30.20
2014,07,14,15,48,30.20
2014,07,14,15,49,30.20
2014,07,14,15,50,30.20
2014,07,14,15,51,30.10
2014,07,14,15,52,30.00
2014,07,14,15,53,29.90
2014,07,14,15,54,29.80
2014,07,14,15,55,29.80
2014,07,14,15,56,29.70
2014,07,14,15,57,29.70
2014,07,14,15,58,29.70
2014,07,14,15,59,29.70
2014,07,14,16,00,29.80
2014,07,14,16,01,29.90
2014,07,14,16,02,29.90
2014,07,14,16,03,29.90
2014,07,14,16,04,29.90
2014,07,14,16,05,29.90
2014,07,14,16,06,29.90
2014,07,14,16,07,29.90
2014,07,14,16,08,29.90
2014,07,14,16,09,29.90
2014,07,14,16,10,30.00
2014,07,14,16,11,30.00
2014,07,14,16,12,30.10
2014,07,14,16,13,30.20
2014,07,14,16,14,30.10
2014,07,14,16,15,30.00
2014,07,14,16,16,29.90
2014,07,14,16,17,29.90
2014,07,14,16,18,29.90
2014,07,14,16,19,29.90
2014,07,14,16,20,29.80
2014,07,14,16,21,29.70
2014,07,14,16,22,29.70
2014,07,14,16,23,29.60
2014,07,14,16,24,29.60
2014,07,14,16,25,29.60
2014,07,14,16,26,29.60
2014,07,14,16,27,29.60
2014,07,14,16,28,29.60
2014,07,14,16,29,29.70
2014,07,14,16,30,29.70
2014,07,14,16,31,29.70
2014,07,14,16,32,29.70
2014,07,14,16,33,29.70
2014,07,14,16,34,29.70
2014,07,14,16,35,29.70
2014,07,14,16,36,29.70
2014,07,14,16,37,29.70
2014,07,14,16,38,29.70
2014,07,14,16,39,29.80
2014,07,14,16,40,29.80
2014,07,14,16,41,29.80
2014,07,14,16,42,29.90
2014,07,14,16,43,29.90
2014,07,14,16,44,29.90
2014,07,14,16,45,29.90
2014,07,14,16,46,29.90
2014,07,14,16,47,29.90
2014,07,14,16,48,29.90
2014,07,14,16,49,29.90
2014,07,14,16,50,29.90
2014,07,14,16,51,29.90
2014,07,14,16,52,29.90
2014,07,14,16,53,29.90
2014,07,14,16,54,29.90
2014,07,14,16,55,29.90
2014,07,14,16,56,29.90
2014,07,14,16,57,29.90
2014,07,14,16,58,29.90
2014,07,14,16,59,30.00
2014,07,14,17,00,30.00
2014,07,14,17,01,30.10
2014,07,14,17,02,30.10
2014,07,14,17,03,30.10
2014,07,14,17,04,30.20
2014,07,14,17,05,30.20
2014,07,14,17,06,30.30
2014,07,14,17,07,30.30
2014,07,14,17,08,30.40
2014,07,14,17,09,30.50
2014,07,14,17,10,30.60
2014,07,14,17,11,30.60
2014,07,14,17,12,30.60
2014,07,14,17,13,30.70
2014,07,14,17,14,30.70
2014,07,14,17,15,30.80
2014,07,14,17,16,30.80
2014,07,14,17,17,30.80
2014,07,14,17,18,30.80
2014,07,14,17,19,30.80
2014,07,14,17,20,30.90
2014,07,14,17,21,30.90
2014,07,14,17,22,30.90